Location: ?????????
(54.7630°N, 39.4991°E)
Time: 07:21:32
(UTC+00:00)

USA 238 DEB - Pass Details

Date: 14 April 2026
Orbit: 883 x 1328 km, 63.4° (Epoch: 10 January)

Event Time Altitude Azimuth Distance (km) Brightness Sun altitude
Rises 17:17:23 0° 308° (NW) 3,871 8.8 -7.9°
Reaches altitude 10° 17:19:55 10° 309° (NW) 2,974 7.7 -8.2°
Maximum altitude 17:27:07 86° 39° (NE) 1,205 4.0 -9.1°
Enters shadow 17:34:38 12° 130° (SE) 3,117 5.5 -10.0°
